Flag Weather past 2 weeks in Jaipur, Rajasthan, India

Now
57 °F

Clear.


Feels Like: 57 °F
Forecast: 58 / 82 °F
Wind: No wind

Location: Jaipur / Sanganer

Current Time: Nov 26, 2014 at 4:02:04 AM

Latest Report: Nov 26, 2014 at 3:00 AM


Visibility: 1 mi

Pressure: 29.95 "Hg

Humidity: 51%

Dew point: 39 °F

Location of JaipurLocation

Historic Weather in Jaipur — Graph

°F

Jaipur temperature yesterday

Maximum temperature yesterday: 81 °F (at 2:30 PM)
Minimum temperature yesterday: 55 °F (at 7:00 AM)
Average temperature yesterday: 68 °F

Past Weeks' High & Low Weather Summary

 TemperatureHumidityPressure
High86 °F (Nov 11, 2:00 PM)64% (Nov 11, 5:30 AM)30.15 "Hg (Nov 11, 5:30 AM)
Low54 °F (Nov 16, 5:30 AM)8% (Nov 15, 4:00 PM)29.89 "Hg (Nov 22, 3:00 PM)
Average71 °F34%30.03 "Hg
* Reported Nov 11 3:00 AM — Nov 26 3:00 AM, Jaipur, Weather by CustomWeather, © 2014

Note: Actual official high and low records may vary slightly from our data, if they occured in-between our weather recording intervals... More about our weather records

Advertising

Jaipur weather history for previous 24 hours

 ConditionsComfort  
Time TempWeatherWind HumidityBarometerVisibility
3:00 AM
Nov 26
57 °FClear.No wind51%29.95 "Hg1 mi
2:00 AM59 °FClear.No wind48%29.95 "Hg1 mi
1:00 AM57 °FClear.No wind55%29.98 "Hg1 mi
12:00 AM61 °FClear.No wind45%29.98 "Hg1 mi
11:00 PM
Nov 25
63 °FClear.No wind37%30.01 "Hg1 mi
10:00 PM63 °FClear.3 mph39%30.01 "Hg1 mi
9:00 PM61 °FClear.3 mph52%30.01 "Hg1 mi
8:00 PM68 °FClear.2 mph33%30.01 "Hg1 mi
6:30 PM72 °FClear.3 mph29%29.98 "Hg1 mi
5:30 PM77 °FHaze.3 mph21%29.98 "Hg2 mi
5:00 PM79 °FHaze.3 mph20%29.98 "Hg2 mi
3:00 PM81 °FHaze.6 mph20%29.98 "Hg2 mi
2:30 PM81 °FHaze.6 mph20%29.98 "Hg2 mi
1:30 PM79 °FClear.6 mph23%30.01 "Hg1 mi
1:00 PM79 °FClear.5 mph24%30.04 "Hg1 mi
12:00 PM77 °FClear.5 mph24%30.07 "Hg1 mi
11:00 AM75 °FClear.5 mph24%30.09 "Hg1 mi
10:00 AM72 °FClear.6 mph25%30.12 "Hg1 mi
9:00 AM68 °FClear.3 mph33%30.12 "Hg1 mi
8:00 AM59 °FClear.1 mph48%30.09 "Hg1 mi
7:00 AM55 °FClear.No wind51%30.07 "Hg1 mi
6:00 AM57 °FClear.No wind44%30.04 "Hg2 mi
5:00 AM59 °FClear.3 mph42%30.04 "Hg2 mi
4:00 AM57 °FClear.3 mph44%30.01 "Hg2 mi
Weather by CustomWeather, © 2014

See weather overviewHow to use our weather pages